Other Surface Observations
Issued by NWS Tucson, AZ

Home | Current Version | Previous Version | Text Only | Print | Product List | Glossary On
Versions: 1 2 3 4 5 6 7 8 9 10 11 12 13 14 15 16 17 18 19 20 21 22 23 24 25 26 27 28 29 30 31 32 33 34 35 36 37 38 39 40 41 42 43 44 45 46 47 48 49 50
376
SXUS55 KTWC 302215
OSOTWC

WEATHER ROUNDUP FOR SOUTHEAST ARIZONA
NATIONAL WEATHER SERVICE TUCSON AZ
315 PM MST THU MAR 30 2017

AZZ504>506-514-302315-
LOCATION       SKY/WX    TMP DP  RH WIND       PRES   REMARKS
TUCSON         SUNNY     86  14   7 W20G26    29.81F
DAVIS-MONTHAN  SUNNY     85  11   6 W16G24    29.80F
CHILDRENS PARK N/A      N/A N/A   9 SW6               PIMA CO DEQ
ALVERNON/22ND  N/A       82 N/A N/A W7                PIMA CO DEQ
CHERRY/GLENN   N/A      N/A N/A N/A N/A               PIMA CO DEQ
TANGERINE      N/A       83 N/A N/A W7                PIMA CO DEQ
CONTL RANCH    N/A       85  14   7 SW9               PIMA CO DEQ
GRANT/1ST      N/A       84  16   8 SW8               PIMA CO DEQ
CRAYCROFT/22ND N/A       83  18   9 N/A               PIMA CO DEQ
GOLFLINKS/KOLB N/A       82  20  10 W5                PIMA CO DEQ
AJO/12TH       N/A       85  17   8 SW10              PIMA CO DEQ
FAIRGROUNDS    N/A       82 N/A N/A SW16              PIMA CO DEQ
SAGUARO        N/A       86  18   8 NW7G13            *SABINO CYN
SAN CARLOS     N/A       81  19  10 SW11G20           *SAN CARLOS
GREEN VALLEY   N/A       83  13   7 SW15              PIMA CO DEQ
HORSE CAMP CYN N/A       75  17  11 W18G29            *ARAVAIPA CYN
RINCON MTNS    NOT AVBL
$$

AZZ509>511-302315-
LOCATION       SKY/WX    TMP DP  RH WIND       PRES   REMARKS
SAFFORD        SUNNY     82  22  11 NW9G22    29.78F
STRAY HORSE    N/A       58  15  18 N/A               *
TRAIL CABIN    N/A       67  21  17 W9G21             *N OF GRANVILLE
BLACK HILLS    NOT AVBL
DRY LAKE       N/A       62  19  19 SW8G17            *NATANES MTNS
NOON CREEK     N/A       76  13   9 N5G16             *PINALENO MTNS
COLUMBINE      N/A       52  19  27 SW9G19            *PINALENO MTNS
GUTHRIE        N/A       68  22  17 W8G25             *SW OF GUTHRIE
$$

AZZ502-503-513-302315-
LOCATION       SKY/WX    TMP DP  RH WIND       PRES   REMARKS
NOGALES        SUNNY     80  14   8 SW16G29   29.91F
SELLS          N/A       85  17   8 NE15G23           *
SASABE         N/A       82  15   8 SW13G23           *ALTAR VLY
HOPKINS        N/A       69  14  12 W11G23            *SANTA RITA MTNS
CARR CYN       N/A       75  15  10 S5G15             *W OF HEREFORD
$$

AZZ507-508-512-302315-
LOCATION       SKY/WX    TMP DP  RH WIND       PRES   REMARKS
SIERRA VISTA   SUNNY     78  11   8 W17G26    29.92F
DOUGLAS        SUNNY     81   7   6 W24G31    29.88F
EMPIRE MTNS    NOT AVBL
MULESHOE RANCH N/A       76  20  12 W10G23            *PRESERVE
HEADQUARTERS   NOT AVBL
$$

.............................NOTES.............................
THIS IS AN AUTOMATED COLLECTIVE WITH MINIMAL QUALITY CONTROL.
PIMA CO DEQ SITES HAVE NONSTANDARD WIND SENSOR HEIGHTS.
PIMA CO DEQ SITES DO NOT REPORT WIND GUSTS.
* INDICATES WIND SENSORS LOCATED AT 20 FEET INSTEAD OF 33 FEET.
..............................KEY..............................
SKY/WX - SKY CONDITION/WEATHER
TMP    - TEMPERATURE IN FAHRENHEIT
DP     - DEWPOINT IN FAHRENHEIT
RH     - RELATIVE HUMIDITY IN PERCENT
WIND   - DIRECTION AND SPEED IN MILES PER HOUR (MPH)
VRB    - VARIABLE WIND DIRECTION
PRES   - MEAN SEA LEVEL PRESSURE IN INCHES OF MERCURY
         F - FALLING PRESSURE   R - RISING PRESSURE
         S - STEADY PRESSURE
VSB    - VISIBILITY IN MILES
HX     - HEAT INDEX IN FAHRENHEIT
WCI    - WIND CHILL INDEX IN FAHRENHEIT
N/A    - NOT AVAILABLE
AFB    - AIR FORCE BASE
         DAVIS-MONTHAN IS DAVIS-MONTHAN AIR FORCE BASE
CYN    - CANYON
MTNS   - MOUNTAINS
NCA    - NATIONAL CONSERVATION AREA
NR     - NEAR
VLY    - VALLEY
CONTL  - CONTINENTAL
PIMA CO DEQ - PIMA COUNTY DEPT OF ENVIRONMENTAL QUALITY



USA.gov is the U.S. government's official web portal to all federal, state and local government web resources and services.